STARLINK-31995, 59958

Orbit data source: Space-Track

STARLINK-31995, 59958 is a payload satellite owned by SpaceX/Seattle (US) in LEO that was launched on Wed, 05 Jun 2024 UTC via an FALCON 9 launch vehicle from the Air Force Eastern Test Range (AFETR). Payload-class satellites include a variety of spacecraft equipped with specific instruments for various scientific and technological missions. These include communications satellites like Starlink; space stations such as the ISS; scientific satellites like the Hubble; Earth observation satellites from companies like Planet Labs, Umbra, and HawkEye 360; GPS; miniature CubeSats for education and research; and military/defense satellites.

Loading next visibility...
Identifier
59958, 2024-107P
Orbit
LEO
Last TLE update
1 day ago
Origin
Manufacturer
SpaceX/Seattle
Mission
Operational spacecraft
Bus & Motor
STARLINK V2M, Unknown motor
Mass
730 kg wet, ~700 kg dry
Launch date (UTC)
2024-06-05 (1 year ago)
Launch vehicle
FALCON 9
Launch site
Air Force Eastern Test Range (AFETR)
Object type
Payload
Rocket body
Debris
Shape & HBR
Unknown
Radar Cross Section
Large (>1 m²)

Expand to show TLE details & history

TLE from 1 day ago
0 STARLINK-31995
1 59958U 24107P   25181.22493507 -.00000014  00000-0  11636-4 0  9996
2 59958  53.1590 158.1587 0000971  58.9780 301.1316 15.30192328 59946
Epoch: 2025-06-30T05:23Z
TLE epoch observation values (Epoch: 2025-06-30T05:23:54.39Z)
Latitude
-0°
Longitude
158.64427°
Altitude
475.794 km
Speed
7.629 km/s
True Right ascension
10h 32m 38s
True Declination
0° 00' 00"
Sunlit
Object was in daylight at epoch
Visualization orbit readout
Latitude
-37.23108°
Longitude
7.47331°
Altitude
487.913 km
Speed
7.621 km/s
Apparent Right ascension
04h 39m 27s
Apparent Declination
-69° 49' 14"
Sunlit
Object is in daylight
Visualization observer readout
Local Sidereal Time
22:15:05
Azimuth
153.778° SSE
Elevation
-39.076°
Doppler factor
1
Orbital elements
Apogee altitude
476.16 km
Perigee altitude
474.829 km
Semi-major axis
6,853.632 km
Eccentricity
0.0001
Inclination
53.159°
RAAN
158.1587°
Arg. of periapsis
58.978°
True anomaly
Unknown
Mean anomaly
301.1316°
Eccentric anomaly
Unknown
Mean motion
3.82527 °/min
Orbital period
94.11 mins
BSTAR
0.000011636
Loading maneuver chart data...
Loading SW <> Apogee altitude chart data...
Loading historical data...
Loading historical data...
Loading historical data...
Loading historical data...
Loading historical data...
Loading historical data...
Loading historical data...

STARLINK-31995 Visibility forecast

Observer location: undefined°, undefined°

Span
Click to sort rows by Start time (UTC) header in descending order
Start Az.
Max El. time (UTC)
Max El. Az.
Max El.
End time (UTC)
End Az.
5 mins2025-07-01 23:52:36.585Z180.906° SSW2025-07-01 23:55:36.585Z117.849° SE21.744°2025-07-01 23:57:36.585Z80.539° E
5 mins2025-07-02 01:30:36.585Z264.083° W2025-07-02 01:32:36.585Z313.095° NW32.335°2025-07-02 01:35:36.585Z32.874° NE
4 mins2025-07-02 06:28:36.585Z356.235° N2025-07-02 06:29:36.585Z22.3° NNE23.882°2025-07-02 06:32:36.585Z84.422° E
5 mins2025-07-02 08:05:36.585Z289.767° WNW2025-07-02 08:07:36.585Z237.694° WSW34.505°2025-07-02 08:10:36.585Z156.901° SSE
|